Location: Tinkerville
(44.2723°N, 71.9351°W)
Time: 21:26:03
(UTC+00:00)

Daily predictions for brighter satellites

Satellite Brightness Start Highest point End
(mag) Time Altitude Azimuth Time Altitude Azimuth Time Altitude Azimuth
NOSS 0 Rocket 4.2 22:30:30 10° NNW 22:36:36 51° ENE 22:42:38 10° SE
Cosmos 1125 Rocket 4.0 22:34:55 10° N 22:39:47 39° ENE 22:44:37 10° SE
Aureole 3 Rocket 3.8 22:38:28 10° NNE 22:41:27 21° ENE 22:44:01 10° ESE
MOS 1 Rocket 4.4 22:37:43 10° S 22:42:04 48° W 22:46:18 10° NNW
SL-08 R/B 4.4 22:36:23 10° N 22:42:33 71° E 22:48:36 10° SSE
USA 267 3.8 22:36:39 10° NE 22:43:03 58° NNW 22:49:26 10° WSW
Cosmos 158 Rocket 4.0 22:39:55 10° SSW 22:44:46 78° WNW 22:49:39 10° NNE
PSLV R/B 4.4 22:41:31 10° ESE 22:44:55 26° ENE 22:48:20 10° N
SeaSat 1 2.4 22:41:41 10° SE 22:46:33 75° ENE 22:51:28 10° NNW
COSMO-SKYMED 1 3.2 22:42:51 10° NNE 22:46:35 32° E 22:50:16 10° SSE
Cosmos 1607 4.2 22:42:45 10° SW 22:48:52 75° NW 22:55:05 10° NNE
Okean 1 Rocket 3.3 22:45:11 10° N 22:49:25 44° ENE 22:53:35 10° SSE
Cosmos 2221 Rocket 3.9 22:46:06 10° SSE 22:50:21 45° E 22:54:39 10° NNE
Okean 2 Rocket 3.1 22:48:02 10° N 22:52:22 56° ENE 22:56:39 10° SSE
Tiangong -0.3 22:50:38 10° SSW 22:53:07 21° SSE 22:55:36 10° ESE
Cosmos 2061 Rocket 4.0 22:48:18 10° N 22:54:40 66° E 23:00:54 10° SSE
Spot 4 Rocket 4.3 22:50:04 10° SE 22:54:54 45° ENE 22:59:46 10° N
Cosmos 1378 Rocket 4.0 22:52:04 10° SSW 22:56:19 64° W 23:00:36 10° N
CZ-2D R/B 3.6 22:53:28 10° SE 22:57:12 45° ENE 23:01:01 10° N
CZ-4C R/B 2.1 22:53:20 10° SW 22:57:25 64° NW 23:02:39 10° NNE
SL-16 R/B 4.4 22:53:17 10° N 22:58:35 31° WNW 23:03:54 10° WSW
ARIANE 5 R/B 3.3 22:55:19 10° S 23:00:21 57° W 23:05:21 10° NNW
Atlas Centaur 2 4.3 22:57:26 10° SW 23:03:48 27° S 23:09:31 10° SE
NOSS 3-3 (C) 3.7 23:00:29 10° SW 23:05:36 84° NW 23:11:45 10° NE
USA 290 4.5 23:03:11 10° WSW 23:05:55 25° WNW 23:08:39 10° N
Sich 1 Rocket 3.6 23:01:24 10° N 23:05:57 64° E 23:10:27 10° SSE
Cosmos 1025 Rocket 3.0 23:04:12 10° S 23:08:30 88° WNW 23:12:51 10° N
BREEZE-M DEB (TANK) 3.8 23:05:18 10° WNW 23:08:40 62° NNE 23:18:22 11° ESE
GP-B 4.1 23:04:53 10° SSW 23:09:07 51° W 23:13:23 10° NNW
Cosmos 1356 Rocket 3.7 23:05:15 10° NNW 23:09:10 68° W 23:13:07 10° S
BREEZE-M (TANK) 2.6 23:09:06 10° WNW 23:11:34 59° NNE 23:16:53 12° ESE
SKYMED 2 3.8 23:08:00 10° N 23:12:21 74° WNW 23:16:41 10° SSW
Resurs 01 Rocket 2.0 23:09:49 10° SE 23:13:53 39° ENE 23:17:59 10° N
Resurs 1-3 3.6 23:11:20 10° SSE 23:15:37 87° WSW 23:19:57 10° NNW
Helios 1A Rocket 3.8 23:19:12 19° ESE 23:19:12 19° ESE 23:21:11 10° SE
USA 234 3.8 23:12:53 10° SE 23:19:19 60° SW 23:25:49 10° NW
Cosmos 2297 Rocket 2.1 23:15:43 10° SSW 23:21:21 76° ESE 23:27:01 10° NNE
Lacrosse 5 rocket 3.4 23:20:19 10° WNW 23:22:29 15° NNW 23:24:41 10° NNE
USA 306 2.5 23:22:40 10° WNW 23:25:03 34° SW 23:25:49 21° S
BREEZE-M DEB (TANK) 4.2 23:21:39 10° WNW 23:25:09 43° SSW 23:30:08 10° SE
SJ-6B 3.0 23:29:26 16° SE 23:31:44 36° ENE 23:34:55 10° N
CRYOSAT 2 4.3 23:30:03 10° NNE 23:34:53 61° E 23:39:43 10° S
Radarsat Rocket 4.0 23:29:57 10° SSE 23:35:47 84° WSW 23:42:03 10° NNW
CARTOSAT-1 3.6 23:39:10 10° S 23:43:21 76° W 23:47:34 10° NNW
Cosmos 2263 Rocket 2.8 23:46:08 10° SSE 23:51:08 33° ESE 23:52:03 32° E
Cosmos 1980 3.8 23:46:34 10° NNW 23:52:14 75° WSW 23:57:51 10° SSE
COSMOS 2428 4.5 23:48:24 10° NW 23:53:29 34° WSW 23:58:32 10° SSW
Cosmos 44 Rocket 3.2 23:49:56 10° SSW 23:54:50 87° ESE 23:58:11 22° NE
